Regional Weather Roundup
Issued by NWS

Home | Current Version | Previous Version | Graphics & Text | Print | Product List | Glossary On
Versions: 1 2 3 4 5 6 7 8 9 10 11 12 13 14 15 16 17 18 19 20 21 22 23 24 25 26 27 28 29 30 31 32 33 34 35 36 37 38 39 40 41 42 43 44 45 46 47 48 49 50
000
ASUS45 KBOU 230007
RWRCO

WEATHER ROUNDUP FOR COLORADO
NATIONAL WEATHER SERVICE DENVER/BOULDER CO
500 PM MST MON DEC 22 2014

NOTE: "FAIR" INDICATES FEW OR NO CLOUDS BELOW 12000 FEET WITH NO
SIGNIFICANT WEATHER AND/OR OBSTRUCTIONS TO VISIBILITY.

COZ001>005-013-030-031-230100-
...NORTHWEST COLORADO...

CITY           SKY/WX    TMP DP  RH WIND       PRES   REMARKS
CRAIG          CLOUDY    27  21  78 N6        29.87R WCI  20
HAYDEN         NOT AVBL
MEEKER         LGT SNOW  30  20  66 NW8       29.85R WCI  22
MOUNT WERNER   NOT AVBL
STEAMBOAT SPGS CLOUDY    26  14  60 W13       29.81R WCI  15
WALDEN         CLOUDY    19  16  86 NW15      29.75R VSB 1/2 WCI   5
$$

COZ006>008-011-230100-
...WEST CENTRAL VALLEYS...

CITY           SKY/WX    TMP DP  RH WIND       PRES   REMARKS
GRAND JUNCTION CLOUDY    36  31  82 W5        29.85R
MONTROSE       CLOUDY    34  30  85 NE6       29.85R WCI  29
EAGLE          LGT SNOW  28  21  74 N13       29.86R FOG     WCI  18
RIFLE          MOCLDY    30  26  85 S6        29.87F WCI  24
DELTA          MOCLDY    39  28  63 N5        29.84R
NUCLA          CLOUDY    36  32  87 N10       29.85R
$$

COZ017>023-064>068-230100-
...SOUTHWEST COLORADO...

CITY           SKY/WX    TMP DP  RH WIND       PRES   REMARKS
DURANGO        LGT RAIN  40  23  50 NW29G48   29.71R
CORTEZ         CLEAR     44  28  53 NW20G32   29.79S
PAGOSA SPRINGS SNOW      32  32 100 S3        29.72R VSB 1/2
TELLURIDE      CLOUDY    26  21  84 N6G17     29.79R WCI  19
WOLF CREEK PAS SNOW      12  12 100 MISG      29.73R VSB 1/4
$$

COZ009-010-012-014-032>034-037-058>063-230100-
...CENTRAL COLORADO...

CITY           SKY/WX    TMP DP  RH WIND       PRES   REMARKS
ASPEN          MOCLDY    25  19  78 NW16G23   29.78R WCI  12
BUENA VISTA    CLOUDY    26  19  74 NW14      29.72R WCI  14
COPPER MTN     CLOUDY    14   9  79 W22G44    29.67R WCI  -4
BERTHOUD PASS  HVY SNOW   1  -4  78 MISG      29.62R VSB<1/4
COTTONWOOD PAS LGT SNOW  23  19  86 NW3       29.70R
GUNNISON       PTCLDY    27  12  54 NW9       29.76S WCI  17
KREMMLING      CLOUDY    21  18  86 S5        29.80R WCI  15
LEADVILLE      LGT SNOW  15  11  83 W7        29.69R FOG     WCI   5
SALIDA         MOCLDY    28  24  83 NW7       29.80S WCI  21
SUNLIGHT       CLOUDY   N/A N/A N/A MISG      29.79R
WILKERSON PASS LGT SNOW  12   9  85 NW8G20    29.69R WCI   1
$$

COZ069>075-230100-
...SAN LUIS VALLEY/SANGRE DE CRISTO MOUNTAINS...

CITY           SKY/WX    TMP DP  RH WIND       PRES   REMARKS
ALAMOSA        PTCLDY    29  19  66 NW12      29.70R WCI  19
LA VETA PASS   LGT SNOW  21  14  73 W10G17    29.68R WCI  10
SAGUACHE       PTCLDY    28  18  64 N17G26    29.72R WCI  16
$$

COZ035-036-038>040-230100-
...NORTHERN COLORADO FRONT RANGE...

CITY           SKY/WX    TMP DP  RH WIND       PRES   REMARKS
DENVER INTL AP CLOUDY    32  21  64 NW14      29.73R WCI  22
DMNS CITY PARK   N/A     31  23  70 W2        29.76R
AURORA         MOCLDY    29  22  74 N12G17    29.74S WCI  20
FRONT RANGE AP NOT AVBL
ERIE MUNI ARPT   N/A     32  26  77 CALM      29.75R
BOULDER MUN AP CLOUDY    32  30  93 SW3       29.73R
CENTENNIAL     CLOUDY    28  23  81 N5        29.74R WCI  23
BROOMFIELD     CLOUDY    32  27  80 NW12      29.73R WCI  23
FORT COLLINS   MOCLDY    36  16  44 NW23G36   29.75R
LONGMONT       MOCLDY    36  19  49 NE5       29.75R
$$

COZ041-046-047-076>085-087-088-230100-
...PIKES PEAK/PALMER DIVIDE AND SOUTHERN FOOTHILLS...

CITY           SKY/WX    TMP DP  RH WIND       PRES   REMARKS
COLO. SPRINGS  LGT SNOW  30  25  81 N16G24    29.75R WCI  19
A. F. ACADEMY  LGT SNOW  26  24  89 N15       29.74R VSB 1   WCI  14
ELLICOTT       NOT AVBL
FALCON         SNOW      25  23  93 N16G22    29.74R VSB 1/2 WCI  12
FORT CARSON    FLURRIES  28  27  93 NE6       29.73R WCI  22
LIMON          CLOUDY    29  26  89 NW16      29.71R WCI  17
MONUMENT HILL  LGT SNOW  23  21  93 N14       29.72R WCI  11
TRINIDAD       MOCLDY    27  25  92 N5        29.70R WCI  22
$$

COZ042>045-048>051-090-091-230100-
...NORTHEAST COLORADO...

CITY           SKY/WX    TMP DP  RH WIND       PRES   REMARKS
GREELEY ARPT   MOCLDY    36  16  44 N20G26    29.72R
AKRON          CLOUDY    32  24  72 NW13      29.70R WCI  22
BURLINGTON     PTCLDY    33  26  75 NW12      29.68R WCI  24
WRAY           PTCLDY    36  29  75 W13       29.67R
STERLING       CLOUDY    36  28  75 N17G26    29.69R
HOLYOKE        PTCLDY    37  28  70 NW17G24   29.65S
FORT MORGAN    CLOUDY    32  23  68 NW13      29.72R WCI  23
$$

COZ086-089-092>099-230100-
...SOUTHEAST COLORADO...

CITY           SKY/WX    TMP DP  RH WIND       PRES   REMARKS
PUEBLO         FLURRIES  35  33  92 E6        29.74R WCI  30
LA JUNTA       CLOUDY    33  32  96 W6        29.74R WCI  28
LAMAR          CLOUDY    41  25  53 NW12      29.69R
SPRINGFIELD      N/A     36  26  67 W7        29.71R
$$


USA.gov is the U.S. government's official web portal to all federal, state and local government web resources and services.